USA 270

Last updated on Aug. 8, 2020, 5:32 a.m. UTC

1 41744U 16052A   20220.07757809  .00000102  00000-0  00000+0 0  9995
2 41744   0.6750  96.1854 0013482 127.0454 171.2557  1.00263206  6682
UTC
Height (km)
Latitude
Longitude
Inclination
Orbital Period
UTC large
Height (km)
Speed (km/s)
/
Latitude / Longitude
Inclination (degrees)
Orbital Period (minutes)
Azimuth
Elevation
Range (km)
Doppler Factor
iOS Compass Heading
iOS Angle

Next 30 passes for location: Hong Kong

Rise time Rise Azimuth (degrees) Set time Set Azimuth (degrees) Duration Max altitude (degrees)

No matching passes for this satellites